Total_Precipitation_Accumulation
0.00 0.01 0.03 0.06 0.09 0.13 0.13 0.16 0.21 0.21 0.22 0.28 0.39 0.60 0.81 0.92 1.10 1.24 1.23 1.35 1.74 2.15 2.45 2.73 2.87 3.10 3.42 3.74 4.02 4.33 4.82 5.08 4.92 4.94 4.85 4.68 4.35 4.16 3.78 3.32 2.96 2.90 2.92 3.17
0.01 0.02 0.03 0.04 0.05 0.08 0.10 0.13 0.18 0.20 0.23 0.30 0.35 0.57 0.78 0.80 1.00 1.14 1.24 1.42 1.58 1.79 2.27 2.54 2.56 2.80 3.04 3.56 4.07 4.42 4.47 4.43 4.26 4.48 4.87 5.09 4.99 4.41 3.77 3.40 3.26 2.89 2.83 2.97
0.02 0.03 0.02 0.03 0.03 0.04 0.10 0.14 0.18 0.20 0.23 0.35 0.45 0.90 1.01 0.90 0.99 1.08 1.16 1.33 1.47 1.64 1.83 2.15 2.18 2.27 2.49 2.99 3.51 3.67 3.57 3.52 3.41 3.53 3.93 4.23 4.48 4.19 3.83 3.50 3.22 2.85 2.75 2.74
0.02 0.02 0.02 0.03 0.03 0.03 0.08 0.09 0.11 0.16 0.28 0.49 0.55 1.06 1.26 1.24 1.31 1.14 1.16 1.21 1.47 1.63 1.67 1.83 1.89 1.94 2.00 2.13 2.39 2.59 2.81 2.92 2.93 2.98 3.21 3.43 3.67 3.70 3.60 3.49 3.17 2.83 2.54 2.50
0.03 0.02 0.03 0.05 0.05 0.04 0.06 0.07 0.09 0.15 0.26 0.48 0.52 0.75 1.26 1.48 1.50 1.25 1.17 1.17 1.31 1.33 1.41 1.55 1.63 1.65 1.69 1.84 2.06 2.30 2.62 2.79 2.86 2.84 2.94 3.16 3.47 3.50 3.29 3.14 3.19 2.97 2.70 2.43
0.05 0.04 0.05 0.06 0.05 0.04 0.06 0.08 0.14 0.22 0.33 0.74 0.64 0.73 1.19 1.39 1.23 1.18 1.08 1.00 1.07 1.06 1.19 1.40 1.51 1.56 1.58 1.67 1.91 2.14 2.38 2.40 2.52 2.58 2.60 2.67 2.88 3.02 2.87 2.71 2.73 2.61 2.51 2.40
0.13 0.11 0.09 0.06 0.06 0.06 0.08 0.15 0.55 0.96 1.14 1.09 0.67 0.77 1.25 1.12 0.95 0.97 0.98 1.01 1.06 1.03 1.02 1.20 1.38 1.39 1.52 1.63 1.75 1.90 2.05 2.16 2.18 2.22 2.15 2.13 2.23 2.38 2.38 2.30 2.33 2.26 2.08 1.98
0.22 0.24 0.17 0.09 0.08 0.10 0.14 0.24 0.71 1.02 1.01 1.00 0.84 1.21 1.39 0.98 0.90 0.88 0.80 0.79 0.82 0.77 0.75 0.85 1.02 1.14 1.29 1.44 1.52 1.64 1.78 1.91 2.01 2.06 2.07 2.04 2.01 2.09 2.18 2.28 2.14 2.09 1.86 1.71
0.15 0.17 0.12 0.09 0.07 0.11 0.22 0.29 0.33 0.55 0.67 1.03 1.25 1.44 1.24 0.97 1.00 0.94 0.90 0.82 0.80 0.74 0.70 0.72 0.82 0.93 0.99 1.10 1.21 1.33 1.48 1.65 1.83 1.83 1.95 1.94 1.82 1.91 2.09 2.20 2.11 2.01 1.98 1.86
0.08 0.10 0.11 0.09 0.11 0.15 0.18 0.22 0.30 0.46 0.71 1.03 1.23 1.57 1.74 1.48 1.31 1.08 1.10 0.98 0.86 0.74 0.68 0.68 0.69 0.71 0.70 0.82 1.10 1.24 1.40 1.55 1.61 1.59 1.56 1.50 1.57 1.75 1.91 1.90 1.84 1.97 2.04 2.04
0.07 0.08 0.12 0.14 0.15 0.17 0.20 0.23 0.30 0.39 0.49 0.79 1.24 1.45 1.22 1.25 1.23 1.19 1.05 0.97 0.92 0.81 0.67 0.64 0.70 0.73 0.72 0.81 1.03 1.06 1.13 1.33 1.40 1.40 1.31 1.31 1.40 1.51 1.60 1.62 1.63 1.78 1.87 1.93
0.09 0.10 0.17 0.21 0.18 0.16 0.19 0.22 0.32 0.50 0.54 0.65 0.99 1.23 0.85 0.93 0.94 0.84 0.79 0.79 0.70 0.68 0.62 0.61 0.69 0.81 0.93 1.09 1.03 0.92 0.93 1.00 1.14 1.21 1.22 1.27 1.30 1.28 1.27 1.30 1.43 1.53 1.59 1.62
0.13 0.17 0.31 0.51 0.51 0.31 0.25 0.21 0.25 0.33 0.44 0.53 0.83 1.13 0.92 0.89 0.95 0.87 0.83 0.83 0.73 0.67 0.64 0.67 0.78 0.82 0.84 0.99 1.09 0.95 0.92 0.99 1.12 1.19 1.27 1.37 1.38 1.29 1.19 1.22 1.32 1.32 1.28 1.32
0.12 0.14 0.27 0.52 0.47 0.35 0.31 0.27 0.29 0.35 0.46 0.49 0.57 0.88 1.00 0.99 0.96 0.92 0.87 0.78 0.77 0.72 0.63 0.67 0.80 0.95 0.95 0.94 1.03 0.97 0.94 1.02 1.16 1.36 1.57 1.60 1.52 1.41 1.31 1.22 1.22 1.22 1.19 1.27
0.13 0.12 0.14 0.19 0.25 0.33 0.36 0.29 0.27 0.29 0.33 0.49 0.49 0.66 0.90 0.96 0.87 0.89 0.92 0.70 0.63 0.72 0.69 0.64 0.75 0.93 1.03 1.05 1.06 1.01 1.05 1.11 1.25 1.49 1.63 1.66 1.64 1.57 1.48 1.37 1.28 1.24 1.25 1.25
0.21 0.19 0.20 0.22 0.29 0.35 0.35 0.29 0.24 0.21 0.23 0.31 0.42 0.62 0.72 0.68 0.74 0.76 0.72 0.70 0.71 0.81 0.78 0.72 0.73 0.80 0.97 1.06 1.11 1.15 1.23 1.28 1.34 1.36 1.40 1.52 1.60 1.60 1.54 1.39 1.31 1.34 1.34 1.32
0.35 0.35 0.31 0.33 0.33 0.39 0.43 0.34 0.28 0.25 0.24 0.35 0.55 0.75 0.72 0.69 0.75 0.68 0.60 0.62 0.77 0.83 0.75 0.71 0.74 0.77 0.85 0.89 0.99 1.24 1.26 1.23 1.24 1.31 1.39 1.51 1.55 1.52 1.48 1.34 1.33 1.35 1.34 1.36
0.33 0.42 0.42 0.43 0.55 0.70 0.47 0.28 0.29 0.33 0.34 0.38 0.53 0.60 0.62 0.60 0.64 0.63 0.56 0.57 0.60 0.65 0.64 0.66 0.73 0.80 0.82 0.79 0.79 0.90 1.03 1.14 1.21 1.26 1.34 1.44 1.48 1.54 1.60 1.52 1.41 1.41 1.42 1.39
0.30 0.46 0.51 0.58 0.74 0.63 0.42 0.37 0.39 0.46 0.53 0.47 0.53 0.56 0.60 0.62 0.66 0.74 0.64 0.58 0.54 0.51 0.56 0.69 0.81 0.78 0.77 0.78 0.78 0.88 1.03 1.16 1.29 1.35 1.39 1.41 1.49 1.64 1.68 1.56 1.50 1.52 1.50 1.41
0.36 0.45 0.63 0.70 0.88 0.84 0.65 0.48 0.43 0.54 0.93 0.67 0.58 0.58 0.64 0.71 0.85 0.92 0.70 0.63 0.61 0.61 0.66 0.65 0.65 0.64 0.70 0.81 0.91 0.99 1.15 1.34 1.43 1.44 1.52 1.60 1.62 1.72 1.83 1.85 1.78 1.69 1.66 1.58
0.77 0.73 0.70 0.83 0.98 0.84 0.62 0.51 0.58 0.98 1.21 0.82 0.71 0.67 0.71 0.82 0.83 0.80 0.71 0.62 0.61 0.64 0.67 0.67 0.72 0.75 0.79 0.82 1.01 1.20 1.31 1.41 1.47 1.49 1.52 1.69 1.79 1.89 2.06 2.23 2.14 2.07 1.98 1.94
1.04 1.10 1.06 1.09 1.25 1.24 0.76 0.63 0.94 1.16 0.92 0.87 0.86 0.83 0.81 0.74 0.68 0.67 0.71 0.66 0.61 0.63 0.73 0.80 0.90 0.95 0.87 0.89 1.04 1.22 1.34 1.41 1.55 1.59 1.65 1.70 1.83 1.90 2.08 2.46 2.46 2.48 2.47 2.31
1.16 1.28 1.39 1.38 1.40 1.14 0.99 1.03 1.07 1.11 1.00 0.93 0.79 0.72 0.71 0.72 0.71 0.75 0.85 0.85 0.74 0.68 0.76 0.82 0.96 1.04 1.06 1.14 1.27 1.44 1.51 1.58 1.66 1.80 1.92 1.96 2.03 2.20 2.30 2.46 2.52 2.56 2.53 2.42
1.12 1.03 1.38 1.52 1.41 1.29 1.16 1.05 1.09 1.25 1.13 0.94 0.80 0.75 0.76 0.76 0.70 0.69 0.75 0.82 0.82 0.78 0.84 0.93 1.01 1.21 1.33 1.39 1.50 1.63 1.73 1.83 1.95 2.08 2.19 2.23 2.25 2.26 2.31 2.47 2.49 2.51 2.50 2.39
1.08 1.07 1.40 1.66 1.59 1.57 1.36 1.06 0.99 1.02 0.96 0.83 0.83 0.82 0.83 0.88 0.83 0.75 0.72 0.75 0.83 0.94 1.03 1.09 1.21 1.34 1.39 1.48 1.58 1.71 1.91 2.09 2.17 2.19 2.20 2.20 2.22 2.34 2.41 2.40 2.40 2.46 2.52 2.51
1.27 1.27 1.56 1.85 1.62 1.58 1.47 1.18 1.03 0.91 0.83 0.81 0.95 0.99 0.91 0.92 0.93 0.89 0.87 0.88 0.92 1.01 1.14 1.25 1.36 1.45 1.49 1.62 1.79 1.92 2.11 2.32 2.48 2.43 2.35 2.34 2.37 2.43 2.44 2.41 2.34 2.39 2.34 2.29